Aeroporto :
LOGIN :

Iscrizione | Disclaimer

   EN    FR    IT 

 










Sommario :    VFR   VFR Marginale   IFR   IFR Intensivo   IFR Molto Intensivo
Visibilità : 
Base nubi : 
>= 8 km
>= 3000ft
5 / 8 km
1000 / 3000 ft
1500m / 5 km
500 / 1000 ft
800 / 1500m
200 / 500 ft
< 800m
< 200 ft
Simboli :   Temporali  Nebbia  Neve Forte  Precipitazioni Forti  Vento > 20 kt
SIGMETs :   Varie  Temporali  Ghiacco  Turbolenza  Onda orograficha  Ceneri Vulcaniche







- Altitudine del aeroporto : 459 ft
- Codice IATA : CER
- Carte del aeroporto


LFRC - Cherbourg / Maupertus

ULTIMO METAR :
  • 222330Z AUTO 11006KT CAVOK 13/08 Q0999

METARs OBSOLETI :
  • 222300Z AUTO 10006KT CAVOK 14/08 Q0999
  • 222230Z AUTO 10007KT CAVOK 14/08 Q0999
  • 222200Z AUTO 09006KT CAVOK 14/08 Q1000
  • 222130Z AUTO 09005KT CAVOK 14/08 Q1000
  • 222100Z AUTO 09006KT 070V130 CAVOK 14/08 Q1000

TAF TAF LFRC
Valido dal 22 a 15 ore il 23 a 00 ore UTC


221400Z 2215/2224 09010KT CAVOK
PROB30
TEMPO 2215/2224 VRB15G25KT 5000 SHRA BKN060TCU
Nessun NOTAM noto per questo aeroporto.



MetMap, La meteo Aeronautica in un colpo d'occhio ! - Copyright ORBIFLY Dicembre 2007 - Disclaimer

ORBIFLY MET'MAP TEAM :

Programmazione e sviluppo : Alexandra Zaïnal
Concezione e sviluppo : Baudouin d'Aumeries
Co-Programmazione e sviluppo : Marc-Olivier Méhu
Supporto tecnico e logistico : Manuel Goepfert
Aiuto per la traduzione : Arnaldo La Scala

Contatto : metmap@orbifly.com




FONTI E CREDITI :

   NOAA